CW5306 Weather Reports


Display with metric or nautical units.
time (UTC)temp
F
wind
direction
speed
MPH
gust
MPH
rain 1hr
in
rain 24hr
in
rain mn
in
humidity
%
barometer
mb
20240524102925 74 105 8.0 17.0 0.00 0.00 0.00 80 1020.2
20240524102424 74 92 11.0 17.0 0.00 0.00 0.00 79 1020.2
20240524101924 74 108 8.0 17.0 0.00 0.00 0.00 79 1020.4
20240524101424 74 118 9.0 18.0 0.00 0.00 0.00 80 1020.6
20240524100923 74 81 9.0 18.0 0.00 0.00 0.00 80 1020.5
20240524100654 74 107 5.0 15.0 0.00 0.00 0.00 81 1020.5
20240524095924 75 108 6.0 15.0 0.00 0.00 0.00 81 1020.5
20240524095654 75 90 6.0 15.0 0.00 0.00 0.00 80 1020.4
20240524094923 75 101 7.0 17.0 0.00 0.00 0.00 80 1020.6
20240524094423 75 95 11.0 17.0 0.00 0.00 0.00 79 1020.6
20240524094154 75 73 8.0 15.0 0.00 0.00 0.00 79 1020.6
20240524093423 75 105 8.0 16.0 0.00 0.00 0.00 79 1020.8
20240524092923 75 98 5.0 16.0 0.00 0.00 0.00 79 1020.7
20240524092424 75 120 9.0 17.0 0.00 0.00 0.00 81 1020.9
20240524091923 75 121 8.0 17.0 0.00 0.00 0.00 82 1020.8
20240524091423 75 75 9.0 13.0 0.00 0.00 0.00 81 1021.0
20240524090923 75 149 5.0 15.0 0.00 0.00 0.00 80 1021.1
20240524090424 75 94 6.0 15.0 0.00 0.00 0.00 80 1021.0
20240524085923 75 92 5.0 14.0 0.00 0.00 0.00 80 1021.0
20240524085422 75 106 3.0 18.0 0.00 0.00 0.00 79 1021.0
20240524084923 75 100 12.0 18.0 0.00 0.00 0.00 78 1021.0
20240524084423 75 66 9.0 18.0 0.00 0.00 0.00 79 1021.1
20240524083917 75 77 10.0 18.0 0.00 0.00 0.00 80 1020.9
20240524083412 75 85 10.0 18.0 0.00 0.00 0.00 80 1021.0
20240524082911 75 74 8.0 18.0 0.00 0.00 0.00 80 1020.9
20240524082411 75 121 11.0 18.0 0.00 0.00 0.00 80 1021.0
20240524082142 75 109 10.0 18.0 0.00 0.00 0.00 80 1020.9
20240524081411 75 77 9.0 18.0 0.00 0.00 0.00 79 1020.7
20240524080912 75 104 6.0 18.0 0.00 0.00 0.00 79 1020.7
20240524080412 75 98 10.0 17.0 0.00 0.00 0.00 79 1020.7
20240524075911 75 117 9.0 16.0 0.00 0.00 0.00 79 1020.6
20240524075412 75 123 7.0 14.0 0.00 0.00 0.00 79 1020.7
20240524074911 75 70 9.0 15.0 0.00 0.00 0.00 79 1020.6
20240524074411 75 110 8.0 15.0 0.00 0.00 0.00 81 1020.5
20240524073911 75 142 7.0 15.0 0.00 0.00 0.00 81 1020.5
20240524073411 75 122 5.0 17.0 0.00 0.00 0.00 81 1020.5
20240524072912 75 109 3.0 17.0 0.00 0.00 0.00 80 1020.3
20240524072411 75 108 11.0 15.0 0.00 0.00 0.00 81 1020.4
20240524071911 75 114 6.0 15.0 0.00 0.00 0.00 80 1020.4
20240524071643 75 120 9.0 15.0 0.00 0.00 0.00 80 1020.3
20240524070911 75 122 4.0 15.0 0.00 0.00 0.00 80 1020.4
20240524070411 75 108 9.0 16.0 0.00 0.00 0.00 80 1020.4
20240524065910 75 121 6.0 16.0 0.00 0.00 0.00 80 1020.3
20240524065648 75 95 9.0 16.0 0.00 0.00 0.00 81 1020.1
20240524065411 75 87 5.0 16.0 0.00 0.00 0.00 81 1020.4
20240524064411 75 134 6.0 18.0 0.00 0.00 0.00 82 1020.0
20240524064142 75 130 11.0 18.0 0.00 0.00 0.00 81 1020.0
20240524063411 75 88 9.0 17.0 0.00 0.00 0.00 81 1020.3
20240524063142 75 109 6.0 15.0 0.00 0.00 0.00 81 1020.1
20240524062410 75 107 7.0 16.0 0.00 0.00 0.00 81 1020.0
20240524062142 75 110 10.0 16.0 0.00 0.00 0.00 81 1020.1
20240524061417 75 126 6.0 15.0 0.00 0.00 0.00 81 1019.8
20240524061411 75 134 6.0 15.0 0.00 0.00 0.00 81 1019.8
20240524060411 75 97 8.0 15.0 0.00 0.00 0.00 81 1019.8
20240524055912 75 143 5.0 18.0 0.00 0.00 0.00 81 1019.8
20240524055411 75 113 5.0 18.0 0.00 0.00 0.00 82 1019.4
20240524054911 75 151 12.0 19.0 0.00 0.00 0.00 81 1019.6
20240524054411 75 129 4.0 19.0 0.00 0.00 0.00 82 1019.3
20240524053911 75 123 9.0 17.0 0.00 0.00 0.00 82 1019.5
20240524053411 75 80 4.0 17.0 0.00 0.00 0.00 82 1019.2
20240524052912 75 144 5.0 17.0 0.00 0.00 0.00 82 1019.3
20240524052411 75 128 6.0 18.0 0.00 0.00 0.00 82 1019.2
20240524051911 75 157 6.0 18.0 0.00 0.00 0.00 83 1019.0
20240524051411 75 112 9.0 17.0 0.00 0.00 0.00 83 1019.1
20240524050911 75 125 11.0 21.0 0.00 0.00 0.00 83 1018.8
20240524050411 76 101 8.0 21.0 0.00 0.00 0.00 82 1018.9
20240524045911 76 147 10.0 19.0 0.00 0.00 0.00 82 1018.8
20240524045410 76 137 9.0 19.0 0.00 0.00 0.00 80 1019.0
20240524044911 76 75 13.0 19.0 0.00 0.00 0.00 80 1018.7
20240524044412 76 128 9.0 19.0 0.00 0.00 0.00 80 1018.6
20240524043911 76 69 8.0 23.0 0.00 0.00 0.00 79 1018.7
20240524043412 76 112 15.0 23.0 0.00 0.00 0.00 78 1018.4
20240524042912 76 107 8.0 19.0 0.00 0.00 0.00 79 1018.4
20240524042643 76 136 8.0 21.0 0.00 0.00 0.00 78 1018.4
20240524041911 76 101 13.0 19.0 0.00 0.00 0.00 78 1018.4
20240524041411 76 138 8.0 19.0 0.00 0.00 0.00 78 1018.5
20240524040912 76 128 7.0 19.0 0.00 0.00 0.00 79 1018.3
20240524040411 76 123 6.0 17.0 0.00 0.00 0.00 79 1018.5
20240524035912 77 120 9.0 17.0 0.00 0.00 0.00 79 1018.2
20240524035642 77 127 6.0 15.0 0.00 0.00 0.00 79 1018.3
20240524034858 76 109 5.0 17.0 0.00 0.00 0.00 78 1018.1
20240524034630 76 117 9.0 18.0 0.00 0.00 0.00 77 1017.9
20240524034130 76 111 6.0 18.0 0.00 0.00 0.00 78 1018.1
20240524033632 77 97 9.0 18.0 0.00 0.00 0.00 78 1018.0
20240524032859 77 117 5.0 18.0 0.00 0.00 0.00 78 1018.0
20240524032359 77 85 7.0 17.0 0.00 0.00 0.00 78 1017.9
20240524031859 77 117 8.0 17.0 0.00 0.00 0.00 78 1018.0
20240524031400 77 87 9.0 17.0 0.00 0.00 0.00 77 1018.2
20240524030859 77 109 11.0 18.0 0.00 0.00 0.00 77 1018.0
20240524030400 77 123 11.0 19.0 0.00 0.00 0.00 77 1017.9
20240524025859 77 84 5.0 19.0 0.00 0.00 0.00 76 1018.0
20240524025359 78 100 9.0 16.0 0.00 0.00 0.00 75 1017.9
20240524024858 78 125 9.0 18.0 0.00 0.00 0.00 75 1017.8
20240524024629 78 148 6.0 21.0 0.00 0.00 0.00 76 1017.9
20240524023859 78 92 9.0 21.0 0.00 0.00 0.00 76 1017.9
20240524023359 79 82 8.0 18.0 0.00 0.00 0.00 75 1017.8
20240524022859 78 129 6.0 18.0 0.00 0.00 0.00 76 1017.8
20240524022358 78 93 8.0 18.0 0.00 0.00 0.00 77 1017.8
20240524022131 78 68 5.0 22.0 0.00 0.00 0.00 76 1017.9
20240524021630 78 80 7.0 22.0 0.00 0.00 0.00 77 1017.8
20240524020858 78 66 9.0 21.0 0.00 0.00 0.00 78 1017.8
20240524020359 78 120 8.0 21.0 0.00 0.00 0.00 77 1017.6
20240524015900 78 101 9.0 18.0 0.00 0.00 0.00 78 1017.9
20240524015630 78 64 10.0 16.0 0.00 0.00 0.00 77 1017.9
20240524014859 79 97 7.0 15.0 0.00 0.00 0.00 76 1018.0
20240524014359 79 115 10.0 18.0 0.00 0.00 0.00 76 1017.8
20240524013902 78 114 12.0 18.0 0.00 0.00 0.00 76 1018.1
20240524013359 78 120 9.0 16.0 0.00 0.00 0.00 76 1018.4
20240524012859 78 116 8.0 18.0 0.00 0.00 0.00 75 1018.2
20240524012400 78 101 9.0 21.0 0.00 0.00 0.00 77 1018.1
20240524011859 78 89 13.0 21.0 0.00 0.00 0.00 76 1018.1
20240524011358 78 120 8.0 18.0 0.00 0.00 0.00 77 1018.2
20240524010858 78 62 4.0 19.0 0.00 0.00 0.00 78 1018.1
20240524010400 78 68 9.0 19.0 0.00 0.00 0.00 77 1017.9
20240524005846 78 105 9.0 17.0 0.00 0.00 0.00 78 1018.2
20240524005341 78 78 9.0 17.0 0.00 0.00 0.00 77 1018.2
20240524004835 78 90 10.0 16.0 0.00 0.00 0.00 77 1018.4
20240524004335 79 98 8.0 16.0 0.00 0.00 0.00 76 1018.5
20240524003835 79 92 10.0 21.0 0.00 0.00 0.00 77 1018.4
20240524003334 79 110 6.0 21.0 0.00 0.00 0.00 76 1018.3
20240524002835 79 75 9.0 18.0 0.00 0.00 0.00 75 1018.5
20240524002606 79 117 9.0 19.0 0.00 0.00 0.00 75 1018.7
20240524001822 80 88 9.0 19.0 0.00 0.00 0.00 75 1018.8
20240524001323 80 134 6.0 17.0 0.00 0.00 0.00 74 1018.8
20240524000824 80 110 9.0 18.0 0.00 0.00 0.00 75 1018.8
20240524000323 80 155 10.0 19.0 0.00 0.00 0.00 74 1019.1
20240523235823 80 108 12.0 19.0 0.00 0.00 0.00 74 1019.0
20240523235323 80 128 9.0 19.0 0.00 0.00 0.00 73 1019.0
20240523234823 80 104 13.0 18.0 0.00 0.00 0.00 73 1019.1
20240523234322 81 143 9.0 16.0 0.00 0.00 0.00 74 1019.3
20240523233823 80 118 9.0 18.0 0.00 0.00 0.00 73 1019.3
20240523233323 80 94 9.0 21.0 0.00 0.00 0.00 74 1019.4
20240523232823 80 98 8.0 21.0 0.00 0.00 0.00 75 1019.5
20240523232323 80 48 8.0 19.0 0.00 0.00 0.00 74 1019.4
20240523231823 80 123 12.0 15.0 0.00 0.00 0.00 75 1019.6
20240523231323 80 134 8.0 16.0 0.00 0.00 0.00 75 1019.7
20240523230823 80 123 10.0 16.0 0.00 0.00 0.00 76 1019.8
20240523230553 80 106 5.0 16.0 0.00 0.00 0.00 76 1019.6
20240523225824 80 139 8.0 16.0 0.00 0.00 0.00 76 1019.8
20240523225323 81 107 8.0 19.0 0.00 0.00 0.00 76 1019.7
20240523224823 80 88 8.0 19.0 0.00 0.00 0.00 77 1020.0
20240523224554 80 88 9.0 17.0 0.00 0.00 0.00 76 1019.9
20240523223823 80 140 7.0 19.0 0.00 0.00 0.00 78 1020.0
20240523223323 79 98 10.0 23.0 0.00 0.00 0.00 77 1020.0
20240523222823 79 111 10.0 23.0 0.00 0.00 0.00 77 1020.1
20240523222323 79 89 13.0 24.0 0.00 0.00 0.00 76 1019.9
20240523222055 79 102 5.0 24.0 0.00 0.00 0.00 76 1020.1
20240523221323 79 111 13.0 21.0 0.00 0.00 0.00 78 1020.1
20240523220823 79 94 11.0 21.0 0.00 0.00 0.00 77 1020.2
20240523220323 79 99 6.0 22.0 0.00 0.00 0.00 78 1020.0
20240523215823 79 108 9.0 22.0 0.00 0.00 0.00 78 1020.2
20240523215311 78 88 9.0 21.0 0.00 0.00 0.00 76 1020.0
20240523214804 79 69 8.0 19.0 0.00 0.00 0.00 76 1019.9
20240523214258 80 117 9.0 24.0 0.00 0.00 0.00 77 1020.3
20240523213758 80 105 10.0 24.0 0.00 0.00 0.00 76 1020.5
20240523213247 79 124 8.0 18.0 0.00 0.00 0.00 78 1020.2
20240523212735 78 42 5.0 21.0 0.00 0.00 0.00 79 1020.2
20240523212225 78 114 6.0 21.0 0.00 0.00 0.00 79 1020.4
20240523211726 78 58 12.0 19.0 0.00 0.00 0.00 79 1020.5
20240523211226 78 98 10.0 19.0 0.00 0.00 0.00 79 1020.5
20240523210725 79 112 10.0 19.0 0.00 0.00 0.00 77 1020.3
20240523210225 79 112 9.0 21.0 0.00 0.00 0.00 77 1020.4
20240523205957 79 80 10.0 21.0 0.00 0.00 0.00 78 1020.5
20240523205226 79 120 7.0 18.0 0.00 0.00 0.00 77 1020.3
20240523204725 79 64 11.0 21.0 0.00 0.00 0.00 76 1020.5
20240523204225 79 125 12.0 21.0 0.00 0.00 0.00 77 1020.5
20240523203724 79 98 9.0 21.0 0.00 0.00 0.00 78 1020.4
20240523203224 78 85 7.0 22.0 0.00 0.00 0.00 78 1020.5
20240523202725 78 126 8.0 22.0 0.00 0.00 0.00 79 1020.4
20240523202456 78 94 12.0 22.0 0.00 0.00 0.00 79 1020.4
20240523201713 78 54 7.0 22.0 0.00 0.00 0.00 79 1020.3
20240523201213 79 100 12.0 19.0 0.00 0.00 0.00 79 1020.6
20240523200713 78 79 6.0 19.0 0.00 0.00 0.00 80 1020.5
20240523200213 78 110 10.0 19.0 0.00 0.00 0.00 79 1020.5
20240523195713 78 110 11.0 19.0 0.00 0.00 0.00 80 1020.8
20240523195213 78 110 13.0 17.0 0.00 0.00 0.00 79 1020.5
20240523194943 78 134 6.0 18.0 0.00 0.00 0.00 80 1020.6
20240523194213 78 107 9.0 19.0 0.00 0.00 0.00 79 1020.5
20240523193713 78 92 11.0 19.0 0.00 0.00 0.00 79 1020.5
20240523193213 79 94 10.0 18.0 0.00 0.00 0.00 78 1020.5
20240523192945 79 115 8.0 18.0 0.00 0.00 0.00 77 1020.7
20240523192213 79 96 7.0 17.0 0.00 0.00 0.00 77 1020.4
20240523191713 79 62 9.0 17.0 0.00 0.00 0.00 78 1020.3
20240523191213 79 78 10.0 17.0 0.00 0.00 0.00 77 1020.5
20240523190713 79 161 7.0 16.0 0.00 0.00 0.00 77 1020.4
20240523190213 78 112 8.0 17.0 0.00 0.00 0.00 77 1020.4
20240523185712 78 106 7.0 17.0 0.00 0.00 0.00 78 1020.3
20240523185212 78 116 10.0 17.0 0.00 0.00 0.00 80 1020.3
20240523184713 78 85 6.0 17.0 0.00 0.00 0.00 79 1020.2
20240523184213 78 85 7.0 17.0 0.00 0.00 0.00 80 1020.1
20240523183712 78 129 6.0 17.0 0.00 0.00 0.00 81 1020.2
20240523183212 78 97 6.0 17.0 0.00 0.00 0.00 79 1020.1
20240523182942 78 130 5.0 17.0 0.00 0.00 0.00 80 1020.1
20240523182211 78 110 9.0 17.0 0.00 0.00 0.00 80 1019.8
20240523181712 78 104 10.0 14.0 0.00 0.00 0.00 81 1020.2
20240523181211 78 99 6.0 17.0 0.00 0.00 0.00 80 1019.8
20240523180712 78 106 8.0 17.0 0.00 0.00 0.00 80 1019.9
20240523180212 78 110 10.0 17.0 0.00 0.00 0.00 80 1019.8
20240523175711 78 96 7.0 17.0 0.00 0.00 0.00 81 1019.9
20240523175211 77 121 7.0 16.0 0.00 0.00 0.00 80 1019.6
20240523174712 77 101 8.0 16.0 0.00 0.00 0.00 80 1019.9
20240523174212 77 108 11.0 15.0 0.00 0.00 0.00 80 1019.8
20240523173711 77 114 6.0 15.0 0.00 0.00 0.00 80 1019.8
20240523173212 77 94 5.0 15.0 0.00 0.00 0.00 81 1019.9
20240523172711 77 114 9.0 14.0 0.00 0.00 0.00 82 1019.9
20240523172444 76 85 6.0 15.0 0.00 0.00 0.00 83 1019.9
20240523171711 76 115 9.0 19.0 0.00 0.00 0.00 84 1019.7
20240523171212 76 104 4.0 19.0 0.00 0.00 0.00 84 1019.6
20240523170943 76 100 7.0 16.0 0.00 0.00 0.00 84 1019.5
20240523170212 76 113 9.0 16.0 0.00 0.00 0.00 83 1019.7
20240523165943 75 130 5.0 15.0 0.00 0.00 0.00 83 1019.7
20240523165818 75 111 9.0 17.0 0.00 0.00 0.00 83 1019.7
20240523164942 75 104 4.0 17.0 0.00 0.00 0.00 83 1019.6
20240523164212 75 101 4.0 13.0 0.00 0.00 0.00 83 1019.4
20240523163944 75 116 4.0 13.0 0.00 0.00 0.00 84 1019.7
20240523163213 75 97 6.0 13.0 0.00 0.00 0.00 84 1019.3
20240523162713 75 119 4.0 10.0 0.00 0.00 0.00 84 1019.4
20240523162212 75 103 7.0 10.0 0.00 0.00 0.00 85 1019.6
20240523161713 75 128 4.0 15.0 0.00 0.00 0.00 84 1019.4
20240523161212 75 113 7.0 16.0 0.00 0.00 0.00 84 1019.3
20240523160713 75 93 5.0 16.0 0.00 0.00 0.00 84 1019.1
20240523160200 74 115 11.0 15.0 0.00 0.00 0.00 84 1019.1
20240523155654 74 139 6.0 15.0 0.00 0.00 0.00 85 1019.1
20240523155149 74 121 2.0 14.0 0.00 0.00 0.00 85 1018.9
20240523154637 75 70 5.0 11.0 0.00 0.00 0.00 85 1019.2
20240523154137 75 113 5.0 15.0 0.00 0.00 0.00 86 1018.8
20240523153855 75 73 5.0 15.0 0.00 0.00 0.00 86 1018.9
20240523153125 75 106 7.0 10.0 0.00 0.00 0.00 85 1019.0
20240523152624 75 107 6.0 17.0 0.00 0.00 0.00 84 1019.1
20240523152124 75 132 8.0 17.0 0.00 0.00 0.00 83 1019.0
20240523151623 75 113 9.0 15.0 0.00 0.00 0.00 83 1018.8
20240523151129 75 125 3.0 14.0 0.00 0.00 0.00 83 1018.6
20240523151124 75 75 6.0 15.0 0.00 0.00 0.00 84 1018.6
20240523150129 75 156 5.0 16.0 0.00 0.00 0.00 83 1018.7
20240523150123 75 107 4.0 16.0 0.00 0.00 0.00 83 1018.7
20240523145123 75 128 4.0 16.0 0.00 0.00 0.00 83 1018.7
20240523144623 75 107 9.0 14.0 0.00 0.00 0.00 83 1018.4
20240523144123 75 154 10.0 14.0 0.00 0.00 0.00 83 1018.6
20240523143622 75 125 5.0 16.0 0.00 0.00 0.00 83 1018.6
20240523143124 75 112 7.0 16.0 0.00 0.00 0.00 83 1018.6
20240523142629 75 86 4.0 15.0 0.00 0.00 0.00 83 1018.7
20240523142623 75 95 2.0 15.0 0.00 0.00 0.00 84 1018.5
20240523141622 75 103 7.0 16.0 0.00 0.00 0.00 83 1018.5
20240523141123 75 105 4.0 16.0 0.00 0.00 0.00 83 1018.3
20240523140622 75 126 8.0 14.0 0.00 0.00 0.00 83 1018.7
20240523140122 75 160 6.0 13.0 0.00 0.00 0.00 82 1018.6
20240523135855 75 105 6.0 13.0 0.00 0.00 0.00 83 1018.5
20240523135123 75 156 6.0 17.0 0.00 0.00 0.00 83 1018.6
20240523134622 75 118 6.0 17.0 0.00 0.00 0.00 82 1018.6
20240523134123 75 121 10.0 15.0 0.00 0.00 0.00 83 1018.8
20240523133623 75 96 5.0 13.0 0.00 0.00 0.00 82 1018.8
20240523133124 75 114 4.0 14.0 0.00 0.00 0.00 82 1018.8
20240523132623 75 113 5.0 15.0 0.00 0.00 0.00 82 1018.7
20240523132124 75 78 6.0 16.0 0.00 0.00 0.00 83 1018.7
20240523131855 75 98 11.0 13.0 0.00 0.00 0.00 83 1018.7
20240523131730 76 74 7.0 15.0 0.00 0.00 0.00 84 1018.5
20240523131500 76 74 3.0 15.0 0.00 0.00 0.00 83 1018.6
20240523130123 76 116 9.0 15.0 0.00 0.00 0.00 83 1018.5
20240523125623 75 116 12.0 15.0 0.00 0.00 0.00 82 1018.8
20240523125123 76 128 7.0 13.0 0.00 0.00 0.00 83 1018.6
20240523124854 76 93 2.0 13.0 0.00 0.00 0.00 82 1018.7
20240523124123 76 137 4.0 17.0 0.00 0.00 0.00 82 1018.7
20240523123853 76 99 4.0 17.0 0.00 0.00 0.00 82 1018.6
20240523123123 75 102 6.0 17.0 0.00 0.00 0.00 81 1018.8
20240523122623 76 134 4.0 17.0 0.00 0.00 0.00 82 1018.6
20240523122124 76 106 4.0 18.0 0.00 0.00 0.00 82 1018.5
20240523121624 76 123 12.0 17.0 0.00 0.00 0.00 82 1018.5
20240523121123 76 85 7.0 17.0 0.00 0.00 0.00 83 1018.6
20240523120623 76 77 7.0 15.0 0.00 0.00 0.00 83 1018.5
20240523120123 76 106 6.0 15.0 0.00 0.00 0.00 83 1018.7
20240523115623 76 78 8.0 18.0 0.00 0.00 0.00 82 1018.7
20240523115123 76 115 14.0 18.0 0.00 0.00 0.00 82 1018.6
20240523114623 76 132 4.0 17.0 0.00 0.00 0.00 83 1018.6
20240523114124 76 75 4.0 15.0 0.00 0.00 0.00 84 1018.7
20240523113854 76 138 9.0 15.0 0.00 0.00 0.00 83 1019.2
20240523113355 76 130 9.0 15.0 0.00 0.00 0.00 83 1018.9
20240523112623 76 104 6.0 15.0 0.00 0.00 0.00 83 1019.3
20240523112123 76 105 8.0 14.0 0.00 0.00 0.00 83 1019.1
20240523111623 76 66 8.0 14.0 0.00 0.00 0.00 82 1019.1
20240523111123 76 142 4.0 15.0 0.00 0.00 0.00 83 1019.3
20240523111000 76 93 7.0 17.0 0.00 0.00 0.00 83 1019.3
20240523110853 76 85 6.0 15.0 0.00 0.00 0.00 83 1019.2
20240523105611 76 102 7.0 17.0 0.00 0.00 0.00 83 1019.1
20240523105111 76 88 4.0 11.0 0.00 0.00 0.00 84 1019.4
20240523104611 76 104 5.0 14.0 0.00 0.00 0.00 83 1019.5
20240523104110 76 110 8.0 14.0 0.00 0.00 0.00 83 1019.5
20240523103611 76 87 4.0 13.0 0.00 0.00 0.00 83 1019.6